Location: Larrial
(48.2758°N, 4.5331°W)
Time: 23:33:51
(UTC+00:00)

AAUSAT CUBESAT 2 - Pass Details

Date: 30 November 2021
Orbit: 571 x 586 km, 97.5° (Epoch: 19 January)

Event Time Altitude Azimuth Distance (km) Brightness Sun altitude
Rises 17:35:34 0° 204° (SSW) 2,772 ? -11.1°
Reaches altitude 10° 17:38:13 10° 222° (SW) 1,878 ? -11.5°
Maximum altitude 17:41:09 19° 268° (W) 1,395 ? -12.0°
Drops below altitude 10° 17:44:05 10° 315° (NW) 1,887 ? -12.4°
Sets 17:46:47 0° 333° (NNW) 2,790 ? -12.8°
